TimeHST,TemperatureF,Dew PointF,Humidity,Sea Level PressureIn,VisibilityMPH,Wind Direction,Wind SpeedMPH,Gust SpeedMPH,PrecipitationIn,Events,Conditions,WindDirDegrees,DateUTC
12:54 AM,70.0,63.0,78,30.03,10.0,WNW,5.8,-,0.00,Rain,Light Rain,290,2013-01-30 10:54:00
1:54 AM,70.0,64.9,84,30.02,10.0,NNW,3.5,-,0.00,,Overcast,330,2013-01-30 11:54:00
2:54 AM,72.0,64.9,78,30.02,10.0,North,6.9,-,N/A,,Overcast,360,2013-01-30 12:54:00
3:54 AM,68.0,64.0,87,30.02,10.0,SSW,3.5,-,N/A,,Overcast,200,2013-01-30 13:54:00
4:54 AM,68.0,64.0,87,30.03,10.0,SW,3.5,-,N/A,,Overcast,230,2013-01-30 14:54:00
5:54 AM,68.0,64.9,90,30.04,10.0,South,3.5,-,N/A,,Overcast,170,2013-01-30 15:54:00
6:54 AM,68.0,64.9,90,30.05,10.0,SE,5.8,-,N/A,,Mostly Cloudy,130,2013-01-30 16:54:00
7:54 AM,68.0,64.9,90,30.07,10.0,Calm,Calm,-,N/A,,Overcast,0,2013-01-30 17:54:00
8:54 AM,71.1,64.9,81,30.08,10.0,Calm,Calm,-,N/A,,Mostly Cloudy,0,2013-01-30 18:54:00
9:54 AM,75.0,66.9,76,30.10,10.0,Calm,Calm,-,N/A,,Mostly Cloudy,0,2013-01-30 19:54:00
10:54 AM,77.0,66.9,71,30.09,10.0,NNW,5.8,-,N/A,,Scattered Clouds,340,2013-01-30 20:54:00
11:54 AM,77.0,66.9,71,30.08,10.0,NNW,6.9,-,N/A,,Mostly Cloudy,340,2013-01-30 21:54:00
12:54 PM,78.1,66.9,68,30.06,10.0,North,10.4,-,N/A,,Mostly Cloudy,10,2013-01-30 22:54:00
1:54 PM,77.0,66.9,71,30.04,10.0,North,9.2,-,N/A,,Mostly Cloudy,360,2013-01-30 23:54:00
2:54 PM,77.0,66.0,69,30.03,10.0,North,9.2,-,N/A,,Mostly Cloudy,350,2013-01-31 00:54:00
3:54 PM,75.9,66.0,71,30.03,10.0,North,8.1,-,0.00,,Mostly Cloudy,10,2013-01-31 01:54:00
4:54 PM,75.0,66.9,76,30.04,10.0,North,9.2,-,N/A,,Mostly Cloudy,10,2013-01-31 02:54:00
5:54 PM,73.9,66.0,76,30.05,10.0,NNE,9.2,-,N/A,,Mostly Cloudy,20,2013-01-31 03:54:00
6:54 PM,73.9,66.9,79,30.06,10.0,NNE,6.9,-,N/A,,Scattered Clouds,20,2013-01-31 04:54:00
7:54 PM,73.9,66.9,79,30.07,10.0,NE,9.2,-,N/A,,Scattered Clouds,40,2013-01-31 05:54:00
8:54 PM,73.0,66.9,81,30.09,10.0,NNE,8.1,-,N/A,,Scattered Clouds,20,2013-01-31 06:54:00
9:54 PM,73.0,66.0,79,30.10,10.0,NE,10.4,-,N/A,,Scattered Clouds,40,2013-01-31 07:54:00
10:54 PM,73.0,66.9,81,30.09,10.0,NNE,9.2,-,N/A,,Scattered Clouds,20,2013-01-31 08:54:00
11:54 PM,73.0,66.9,81,30.08,10.0,NNE,9.2,-,N/A,,Mostly Cloudy,20,2013-01-31 09:54:00